Temp
16 16 15 16 16 16 16 17 16 16 16 16 16 16 16 16 16 16 16 15 16 16 15 15 15 15 15 15 14 15 15 15 15 15 15 16 16 15 15 15 15 14 15
16 16 16 16 16 16 16 16 16 16 16 16 16 16 16 16 16 16 16 15 16 15 16 15 15 15 15 15 14 14 15 14 14 14 15 16 15 15 15 15 15 15 16
16 16 16 16 16 16 16 16 16 16 16 16 16 16 15 15 15 15 15 15 16 16 14 15 14 14 14 15 15 15 14 14 14 14 15 15 15 15 15 15 14 15 14
16 16 16 16 16 16 15 15 15 15 16 16 16 16 16 15 15 16 15 16 15 15 15 15 14 14 15 15 15 15 15 14 14 14 15 15 14 14 14 14 14 14 14
17 17 17 17 16 16 16 15 15 15 15 16 16 16 16 16 16 16 16 15 14 14 14 14 14 15 15 15 15 15 14 15 15 14 14 14 14 14 14 15 14 14 14
16 16 16 16 16 16 15 15 15 15 15 15 15 15 15 15 15 16 15 14 14 14 14 14 14 14 14 14 14 14 14 14 14 14 14 14 13 14 15 15 15 15 14
15 15 15 15 16 16 15 15 15 15 15 15 15 15 15 15 15 15 14 14 14 14 14 14 14 14 14 14 14 14 14 14 14 14 13 14 14 14 14 15 15 15 15
15 15 15 15 15 15 15 15 15 15 15 15 14 15 15 15 15 14 14 14 14 15 15 15 14 14 14 13 13 13 13 14 14 14 13 13 14 14 14 14 14 15 15
15 15 15 15 15 15 15 15 15 14 14 14 14 14 14 15 15 14 14 14 14 14 15 15 14 14 14 14 13 13 13 13 13 13 13 13 14 13 14 14 14 15 15
15 15 15 15 15 14 15 15 15 15 14 14 14 14 14 14 14 14 14 14 14 14 14 14 15 14 14 14 13 13 13 13 13 13 13 14 13 14 14 14 14 15 15
15 15 15 15 14 14 14 14 15 15 15 14 14 14 14 14 14 14 14 14 14 14 14 14 14 14 14 14 13 13 12 12 12 13 13 13 13 13 14 13 13 14 14
15 15 15 14 14 14 14 14 14 15 15 14 14 14 14 14 13 14 14 14 14 14 14 13 13 14 13 13 13 13 13 12 12 12 12 12 12 13 13 12 12 13 13
15 15 14 14 14 14 14 14 14 14 14 14 14 14 14 13 13 13 14 14 14 13 13 13 13 13 14 13 13 13 13 12 12 12 12 12 12 12 12 12 12 12 12
14 14 14 14 14 14 14 14 13 13 14 14 14 14 13 13 13 13 13 13 14 13 13 14 13 13 14 14 13 13 13 12 12 12 12 12 12 12 12 12 12 12 13
14 14 14 14 14 14 14 14 13 13 13 13 13 14 13 13 13 13 13 13 13 13 13 13 13 12 13 14 13 12 12 12 12 12 12 12 11 12 11 12 11 12 12
14 14 14 14 14 14 14 13 13 13 12 12 13 13 13 13 12 13 13 13 13 13 13 13 13 12 13 14 13 12 12 12 12 12 12 11 12 11 12 12 11 11 12
15 14 14 14 13 13 13 13 12 12 12 12 12 12 12 13 13 12 12 12 13 13 13 13 12 12 13 13 12 12 11 11 11 12 11 11 11 11 11 11 11 11 11
14 14 14 13 13 12 12 12 12 11 11 11 11 11 12 12 11 11 11 12 12 12 12 13 13 12 11 12 12 11 11 11 11 11 11 11 11 11 11 10 11 10 10
14 13 13 12 12 12 11 11 11 11 11 11 10 11 10 10 10 10 10 12 12 12 12 12 12 12 10 10 11 11 10 10 11 10 12 11 11 11 11 10 11 10 9
13 13 12 12 12 11 11 11 11 11 11 10 10 10 10 10 10 9 10 11 10 11 11 11 12 10 9 11 10 10 10 10 10 10 10 11 10 10 10 9 10 9 8
13 12 11 11 11 11 11 11 11 11 11 10 10 9 9 10 10 10 10 10 11 10 10 11 11 11 9 10 10 10 10 9 10 10 10 10 10 9 9 9 9 8 7
12 12 11 10 11 10 10 10 10 10 10 10 10 9 9 9 9 9 9 10 10 11 10 10 10 10 9 9 10 9 9 9 9 9 9 9 9 9 9 9 8 7 7
12 10 10 10 9 10 9 9 9 9 9 10 9 9 9 9 8 8 9 9 10 10 10 10 10 10 10 9 9 9 8 8 8 8 8 9 9 8 8 8 8 7 7
11 10 9 9 9 9 9 9 8 8 8 9 9 9 8 8 8 8 8 8 9 9 8 9 10 9 9 9 9 9 9 10 8 7 8 8 8 8 7 7 7 7 7
10 10 9 9 9 9 8 8 8 8 9 8 7 8 8 7 6 7 7 8 8 8 8 8 9 8 8 9 9 9 8 9 9 8 7 7 7 7 7 7 7 7 7
10 9 9 9 9 8 8 8 8 7 7 7 7 7 7 7 6 6 7 7 7 7 8 8 8 8 8 9 9 9 9 8 9 8 7 7 7 7 6 6 7 7 7
Height
1526 1526 1526 1528 1529 1531 1533 1534 1536 1538 1539 1541 1541 1544 1545 1546 1548 1549 1550 1552 1552 1553 1554 1555 1556 1558 1558 1559 1559 1560 1561 1562 1563 1564 1565 1565 1566 1567 1568 1568 1569 1569 1570
1526 1526 1526 1528 1530 1531 1533 1535 1536 1538 1540 1541 1542 1544 1545 1546 1547 1549 1551 1552 1553 1554 1555 1557 1557 1559 1559 1560 1561 1562 1563 1564 1565 1566 1567 1567 1569 1570 1570 1570 1571 1572 1572
1527 1528 1528 1529 1530 1531 1533 1534 1537 1538 1539 1540 1542 1544 1545 1547 1548 1550 1551 1552 1553 1554 1555 1557 1558 1559 1560 1561 1562 1563 1564 1565 1566 1567 1569 1569 1570 1571 1571 1572 1573 1574 1574
1527 1528 1529 1530 1530 1531 1532 1534 1535 1538 1538 1540 1541 1543 1545 1546 1547 1549 1551 1552 1553 1554 1555 1557 1558 1559 1560 1561 1562 1564 1565 1567 1568 1569 1570 1570 1571 1573 1573 1574 1575 1575 1575
1527 1528 1529 1530 1530 1531 1532 1533 1534 1536 1537 1539 1540 1541 1543 1545 1546 1548 1549 1551 1553 1554 1556 1557 1558 1559 1560 1562 1563 1565 1566 1568 1569 1570 1571 1571 1572 1574 1574 1576 1577 1578 1578
1527 1528 1528 1529 1529 1530 1530 1531 1532 1534 1535 1537 1539 1540 1542 1544 1545 1547 1548 1551 1552 1554 1555 1557 1558 1559 1561 1562 1564 1565 1567 1568 1569 1570 1571 1572 1574 1575 1575 1577 1578 1579 1580
1526 1526 1527 1528 1528 1528 1529 1530 1530 1531 1533 1535 1538 1539 1541 1542 1544 1546 1548 1549 1551 1553 1555 1557 1558 1559 1561 1563 1564 1566 1567 1568 1570 1571 1572 1573 1575 1576 1577 1578 1579 1580 1580
1525 1525 1526 1526 1527 1527 1527 1528 1528 1529 1531 1532 1535 1537 1539 1541 1543 1545 1547 1549 1550 1553 1554 1555 1557 1559 1561 1563 1565 1566 1568 1569 1570 1572 1572 1574 1576 1577 1578 1578 1579 1579 1580
1523 1523 1524 1525 1525 1526 1526 1526 1526 1527 1528 1530 1532 1534 1537 1539 1542 1543 1545 1547 1549 1552 1553 1555 1556 1558 1560 1562 1565 1567 1569 1571 1572 1573 1573 1575 1576 1577 1577 1577 1578 1578 1578
1521 1521 1521 1522 1522 1523 1523 1523 1523 1524 1526 1527 1530 1532 1534 1537 1539 1541 1543 1545 1547 1550 1552 1553 1555 1557 1559 1561 1563 1565 1568 1570 1572 1573 1574 1575 1576 1576 1577 1576 1576 1577 1577
1518 1519 1519 1519 1519 1519 1520 1520 1520 1521 1522 1524 1526 1528 1531 1533 1535 1537 1539 1542 1545 1548 1550 1552 1553 1555 1557 1559 1561 1563 1567 1569 1571 1573 1574 1575 1576 1576 1576 1576 1576 1576 1577
1515 1516 1516 1515 1516 1516 1516 1517 1517 1517 1519 1520 1522 1524 1526 1528 1531 1534 1536 1539 1542 1545 1548 1550 1551 1553 1555 1557 1559 1561 1564 1567 1570 1572 1573 1574 1575 1575 1575 1576 1577 1577 1578
1511 1512 1512 1512 1512 1512 1512 1513 1513 1514 1515 1516 1518 1520 1522 1524 1527 1529 1532 1535 1537 1540 1543 1546 1547 1549 1552 1554 1556 1558 1561 1564 1568 1570 1572 1574 1574 1575 1575 1577 1577 1578 1580
1508 1508 1508 1508 1508 1508 1508 1508 1509 1510 1511 1512 1513 1515 1517 1519 1522 1524 1527 1530 1533 1535 1538 1541 1543 1546 1548 1551 1554 1556 1558 1561 1565 1568 1570 1572 1574 1574 1575 1577 1578 1579 1581
1504 1504 1504 1504 1504 1504 1503 1504 1504 1505 1507 1507 1509 1510 1512 1514 1516 1519 1522 1525 1528 1531 1533 1536 1539 1542 1544 1546 1550 1553 1555 1558 1561 1565 1568 1570 1573 1574 1574 1577 1579 1580 1581
1500 1500 1501 1500 1499 1499 1499 1499 1500 1501 1502 1503 1504 1505 1507 1508 1511 1514 1517 1520 1523 1525 1529 1531 1534 1537 1540 1543 1546 1549 1553 1555 1558 1561 1565 1568 1571 1572 1573 1575 1579 1580 1581
1497 1497 1496 1496 1495 1495 1494 1494 1495 1496 1497 1499 1500 1501 1502 1503 1506 1509 1511 1514 1517 1520 1524 1525 1529 1532 1535 1539 1543 1546 1549 1553 1555 1558 1561 1565 1567 1569 1572 1574 1576 1579 1581
1493 1493 1492 1491 1491 1490 1490 1490 1490 1491 1493 1495 1495 1496 1497 1499 1501 1503 1506 1508 1511 1514 1518 1520 1522 1526 1532 1534 1539 1544 1546 1549 1552 1555 1557 1562 1564 1567 1569 1572 1575 1577 1579
1490 1488 1487 1486 1486 1485 1486 1486 1486 1487 1488 1489 1491 1492 1493 1494 1496 1498 1501 1503 1505 1508 1510 1514 1517 1518 1524 1531 1536 1541 1545 1547 1549 1551 1554 1558 1561 1564 1567 1569 1572 1575 1576
1484 1484 1482 1481 1480 1480 1480 1481 1482 1482 1483 1484 1486 1488 1489 1490 1492 1493 1496 1498 1501 1503 1503 1507 1511 1513 1518 1522 1534 1538 1543 1547 1547 1548 1551 1554 1558 1561 1563 1567 1570 1572 1574
1479 1478 1477 1476 1475 1475 1475 1475 1476 1477 1478 1479 1480 1481 1483 1485 1486 1487 1489 1492 1495 1498 1499 1503 1502 1508 1510 1516 1527 1538 1538 1543 1545 1544 1547 1550 1553 1558 1561 1564 1568 1570 1572
1475 1473 1472 1471 1471 1470 1471 1472 1472 1473 1473 1474 1474 1475 1476 1478 1479 1480 1482 1485 1488 1490 1493 1496 1498 1496 1503 1511 1513 1531 1532 1537 1539 1540 1543 1546 1549 1553 1557 1560 1564 1567 1569
1470 1469 1466 1466 1466 1467 1467 1467 1467 1467 1467 1468 1469 1469 1469 1469 1471 1472 1475 1477 1479 1482 1485 1488 1493 1491 1500 1500 1510 1517 1525 1527 1530 1536 1537 1541 1544 1549 1553 1556 1559 1563 1567
1465 1464 1463 1463 1463 1464 1463 1463 1463 1462 1462 1464 1463 1461 1461 1461 1462 1464 1466 1469 1471 1474 1477 1480 1485 1490 1493 1498 1506 1505 1516 1521 1522 1528 1532 1535 1540 1544 1548 1552 1555 1559 1563
1461 1460 1460 1460 1460 1460 1459 1458 1458 1457 1458 1457 1455 1453 1453 1452 1453 1455 1458 1460 1462 1465 1468 1474 1476 1479 1485 1489 1493 1499 1507 1513 1517 1520 1526 1528 1535 1539 1544 1548 1551 1555 1559
1458 1457 1455 1456 1456 1455 1454 1453 1452 1451 1452 1451 1449 1447 1446 1446 1446 1448 1450 1453 1454 1457 1460 1464 1468 1472 1474 1480 1486 1491 1497 1501 1507 1514 1522 1526 1530 1534 1540 1544 1547 1550 1554
Wind_Speed
5 5 9 9 10 9 11 11 11 10 9 9 11 12 12 10 9 7 7 6 5 7 10 11 10 11 12 13 12 11 15 14 14 15 15 15 14 15 15 15 16 16 17
8 8 7 11 9 10 10 11 11 11 10 10 11 11 11 10 9 7 6 6 5 5 8 14 13 12 13 13 11 12 14 14 13 15 15 15 14 15 16 16 15 15 16
8 9 9 7 9 9 10 10 11 12 12 13 12 11 11 11 10 7 7 6 6 7 7 11 14 13 11 9 10 13 14 14 13 16 13 14 15 16 17 17 13 15 15
9 7 6 5 3 8 9 10 11 11 12 14 15 14 14 13 10 9 9 8 8 7 7 8 11 11 10 9 10 13 14 13 12 12 11 13 14 16 17 16 18 18 20
4 3 3 2 1 3 8 10 12 12 11 12 14 15 16 15 12 11 11 10 9 7 8 9 9 9 9 10 11 12 13 12 12 12 12 12 15 17 16 15 12 14 15
2 2 3 3 4 7 7 10 12 13 13 12 13 14 14 14 13 13 11 12 10 11 12 12 10 9 10 10 10 11 11 12 12 12 10 15 18 17 16 14 10 8 6
1 3 3 3 3 8 11 10 13 14 15 15 15 15 15 14 14 14 13 13 12 13 14 14 13 12 12 10 10 10 11 11 12 12 13 19 14 14 12 11 7 4 4
3 3 3 4 5 5 10 14 13 15 15 17 17 16 15 16 15 14 14 15 15 14 13 14 16 15 13 13 11 10 9 10 12 16 22 16 11 8 7 5 4 4 6
7 7 7 6 6 7 8 13 15 16 15 17 19 19 17 16 16 17 17 16 18 17 14 13 16 17 15 15 13 12 10 12 13 16 12 11 9 4 3 4 6 7 7
9 8 9 10 10 10 11 11 15 17 18 16 18 20 21 19 18 17 19 18 20 21 18 15 15 18 17 15 14 14 12 13 15 14 12 10 8 7 5 6 6 4 6
12 12 13 12 12 13 12 11 13 17 19 19 18 19 21 22 21 19 20 21 20 22 23 18 16 17 18 17 15 16 14 15 15 15 13 11 10 8 5 4 3 7 13
14 13 14 13 12 13 14 13 12 15 18 21 22 21 21 24 23 22 21 21 22 24 25 22 17 17 19 20 19 18 18 18 15 14 12 9 6 5 4 8 10 13 17
14 14 13 15 15 16 16 16 14 14 17 20 22 24 23 23 25 24 24 23 23 24 28 26 21 18 19 22 22 21 20 19 16 13 12 7 5 6 12 12 15 17 17
14 13 13 15 15 15 15 17 18 16 16 18 22 24 26 26 26 27 27 26 26 29 31 31 26 21 21 23 24 23 21 19 18 15 12 11 6 12 16 15 17 16 16
14 14 14 16 16 16 17 16 18 19 17 16 19 24 26 27 28 28 29 29 29 31 34 35 30 26 24 25 26 25 23 21 20 17 14 13 9 16 18 18 19 18 19
14 14 15 16 17 18 18 18 18 20 19 18 18 19 26 28 28 29 30 31 32 33 37 35 33 31 28 27 28 26 24 23 22 19 15 14 12 17 18 17 19 19 21
13 15 17 18 19 19 18 17 17 20 20 18 18 19 20 24 26 26 29 32 34 33 36 38 36 35 31 30 30 28 25 25 25 21 18 13 12 24 19 18 19 21 22
14 16 19 20 20 19 17 16 16 18 19 19 19 19 19 19 20 26 26 27 33 34 36 41 39 34 32 32 32 31 29 27 27 25 21 15 15 25 22 19 21 19 21
16 18 20 21 21 19 18 18 19 20 20 21 20 19 17 16 17 20 29 28 30 35 35 41 43 36 36 33 34 33 31 29 28 27 23 18 18 25 23 18 18 21 19
17 20 21 18 18 19 19 20 21 23 24 23 21 19 20 20 21 23 24 32 32 27 35 44 42 36 38 34 34 33 31 30 31 27 22 19 18 24 24 21 21 19 18
17 19 19 19 17 19 20 21 22 24 25 25 25 23 23 24 24 27 30 28 34 34 29 33 41 44 40 39 37 36 34 32 33 28 25 22 22 25 27 23 23 21 20
16 18 20 19 18 18 18 19 21 21 22 24 25 27 26 25 27 29 30 35 36 35 33 29 38 43 41 44 41 39 27 31 36 33 28 25 24 26 29 28 25 23 23
13 16 17 15 13 13 15 18 20 22 24 21 21 25 29 27 24 28 33 32 34 38 35 35 37 43 50 43 45 35 20 20 33 35 32 29 27 28 28 30 26 24 23
11 12 11 9 10 12 12 15 17 17 18 19 25 28 27 33 33 27 31 34 35 34 33 33 37 40 42 49 44 50 38 26 32 20 35 32 28 28 27 29 28 23 21
11 10 9 9 10 12 15 16 18 18 20 23 25 26 26 25 26 29 29 32 35 36 35 35 39 42 45 49 53 47 43 24 34 25 27 36 30 28 29 32 27 26 24
11 11 10 12 12 14 17 17 20 22 23 25 26 28 26 24 25 27 28 29 30 33 36 37 42 43 43 53 54 50 51 38 36 28 24 37 34 33 32 31 31 29 26
Wind_Direction
132 138 166 169 184 189 176 179 194 202 189 182 172 176 175 169 159 155 149 145 131 130 133 129 128 133 131 129 122 111 119 118 119 118 114 108 106 109 110 117 119 115 117
129 117 144 165 178 201 201 194 193 196 208 200 189 182 187 182 168 167 173 171 162 154 138 145 149 145 143 149 139 129 134 136 131 122 114 110 113 116 115 112 117 115 111
122 105 99 155 179 188 208 212 205 204 208 219 217 210 203 189 175 184 195 194 187 177 161 160 165 168 175 173 170 154 149 145 139 137 121 121 122 121 113 109 112 119 112
110 104 97 82 127 196 205 212 212 207 208 215 225 227 221 212 214 208 206 200 194 186 179 166 172 178 177 167 157 155 155 156 152 148 140 130 133 128 120 124 111 125 112
95 72 61 66 187 193 214 216 216 220 219 213 214 221 219 227 229 217 203 200 191 182 176 168 162 163 164 157 156 154 157 159 154 148 145 133 138 137 136 129 120 122 120
61 21 349 319 253 236 221 218 222 222 222 216 212 209 209 214 215 220 202 198 194 192 185 182 180 165 162 158 159 158 161 163 162 155 155 150 145 138 131 135 130 131 139
8 13 349 330 312 247 240 236 227 223 223 223 216 215 213 213 211 211 199 203 203 191 188 191 185 176 161 156 153 151 159 162 168 166 161 149 149 146 138 141 151 166 208
246 271 286 311 322 286 255 247 241 231 224 224 223 218 220 218 217 215 212 211 203 190 183 182 189 181 180 162 173 169 171 158 155 164 148 151 164 164 161 169 200 234 243
258 263 261 272 282 284 268 255 249 241 236 228 223 222 220 222 226 226 222 221 210 199 190 183 186 192 191 191 190 191 179 168 167 170 169 166 169 177 213 231 248 257 253
259 265 272 274 272 271 270 261 249 243 241 239 231 226 225 224 226 232 229 226 222 211 201 193 191 194 197 197 194 192 188 193 183 190 193 206 216 249 256 266 254 219 182
262 271 276 277 271 265 265 256 252 243 239 239 237 231 231 230 228 232 226 227 227 218 214 206 198 200 201 201 198 191 191 194 195 199 205 219 223 235 258 243 185 152 140
266 267 273 275 274 266 261 259 253 249 239 238 239 238 234 231 234 234 234 229 231 228 219 216 208 204 206 205 201 197 193 198 200 209 213 201 229 240 202 162 160 148 142
263 264 264 269 273 270 262 257 253 248 244 239 239 240 239 236 231 232 234 232 229 221 220 215 218 213 216 212 210 205 200 202 210 209 206 222 211 213 175 177 162 148 145
261 266 266 268 277 278 269 256 248 247 246 243 239 237 238 239 237 232 231 233 229 222 218 222 226 226 222 215 215 210 206 202 198 200 205 212 223 186 178 170 157 157 154
267 269 270 275 278 278 272 265 249 243 247 249 247 242 238 239 239 238 233 230 233 229 222 224 226 227 224 216 213 213 209 202 196 202 213 202 221 193 181 187 168 161 167
275 276 273 279 280 282 277 268 255 243 243 250 255 253 243 240 239 238 237 234 234 234 229 225 229 227 224 218 212 210 209 203 201 199 208 204 219 208 192 202 192 180 169
275 281 281 280 281 282 279 271 256 241 243 251 260 263 254 245 246 236 242 237 237 237 235 229 228 226 221 216 213 207 204 203 202 199 205 216 224 198 195 196 194 196 187
271 277 278 280 279 277 274 267 257 243 243 251 262 265 260 250 244 242 245 249 241 238 237 232 227 225 219 213 210 206 203 201 203 201 200 207 203 197 199 189 209 199 205
273 281 282 280 276 269 266 261 256 253 249 250 255 261 265 256 247 242 236 244 243 240 242 232 230 222 216 212 209 208 206 200 203 200 205 204 206 205 202 193 210 215 203
274 283 286 283 274 263 265 259 253 251 253 255 255 253 257 259 248 241 238 242 240 241 231 241 233 221 210 208 211 209 207 204 206 204 203 207 207 209 199 203 214 212 190
274 279 284 281 270 261 263 260 256 252 254 257 260 258 254 253 256 248 242 238 241 246 242 237 226 220 213 204 204 210 202 202 214 206 200 207 209 210 216 215 213 214 198
276 281 281 279 268 260 263 263 261 257 251 251 255 260 261 257 254 253 246 240 240 244 244 239 229 213 206 208 197 206 194 198 209 206 203 205 212 208 216 215 211 207 204
281 289 290 277 262 256 269 267 262 259 260 260 268 269 268 262 261 255 251 244 241 242 240 241 223 214 206 200 209 197 190 201 195 202 203 206 209 214 212 217 213 210 202
283 302 308 286 261 263 271 266 261 260 266 283 288 284 272 261 263 255 250 246 243 239 237 231 227 227 221 205 204 200 207 208 185 189 201 204 207 211 213 210 207 207 209
286 293 303 300 277 270 271 274 259 258 274 287 292 281 282 266 256 249 249 245 239 236 237 234 229 223 224 219 212 205 204 203 203 195 195 195 205 214 207 206 206 215 215
291 288 292 294 287 282 278 272 262 260 271 282 295 279 275 273 260 250 246 244 238 234 232 230 231 229 225 216 215 210 209 204 198 199 197 197 206 208 209 212 213 218 221